Windsor, CA

8:38 AM PDT on October 01, 2016 (GMT -0700)
Sonoma County

Weather History for KSTS - April, 2013

Change the Weather History Date:

Sunday, April 14, 2013

  Actual Average Record
Temperature  
Mean Temperature 59 °F 55 °F  
Max Temperature 72 °F 69 °F 87 °F (1999)
Min Temperature 45 °F 42 °F 36 °F (2005)
Degree Days  
Heating Degree Days 6    
Month to date heating degree days 90  
Since 1 July heating degree days 2516  
Cooling Degree Days 0    
Month to date cooling degree days 1  
Year to date cooling degree days 1  
Growing Degree Days 8 (Base 50)    
Moisture  
Dew Point 37 °F    
Average Humidity 53    
Maximum Humidity 80    
Minimum Humidity 26    
Precipitation  
Precipitation 0.00 in 0.08 in 0.18 in (2007)
Month to date precipitation 1.11 1.10  
Year to date precipitation 4.85 19.53  
Since 1 July precipitation 27.26  
Sea Level Pressure  
Sea Level Pressure 29.87 in    
Wind  
Wind Speed 12 mph (NW)    
Max Wind Speed 31 mph    
Max Gust Speed 38 mph    
Visibility 10 miles    
Events      
T = Trace of Precipitation, MM = Missing Value Source: NWS Daily Summary

Daily Weather History Graph

Daily Weather History Graph

Search for Another Location

Airport or City:

Trip Planner

Search our weather history database for the weather conditions in past years. The results will help you decide how hot, cold, wet, or windy it might be!

Date:

Astronomy

Apr. 14, 2013 Rise Set
Actual Time 6:36 AM PDT 7:47 PM PDT
Civil Twilight 6:08 AM PDT 8:14 PM PDT
Nautical Twilight 5:36 AM PDT 8:47 PM PDT
Astronomical Twilight 5:02 AM PDT 9:21 PM PDT
Moon 9:19 AM PDT (4/14) No Moon Set
Length of Visible Light 14h 05m
Length of Day
13h 11m
Waxing Crescent, 18% of the Moon is Illuminated
Apr 14
Waxing Crescent
Apr 18
First Quarter
Apr 25
Full
May 2
Last Quarter
May 9
New

Hourly Weather History & Observations

Time (PDT) Temp. Windchill Dew Point Humidity Pressure Visibility Wind Dir Wind Speed Gust Speed Precip Events Conditions
12:53 AM 51.1 °F - 34.0 °F 52% 29.88 in 10.0 mi NW 12.7 mph 23.0 mph N/A   Clear
1:53 AM 50.0 °F - 33.1 °F 52% 29.88 in 10.0 mi NNW 9.2 mph - N/A   Clear
2:53 AM 50.0 °F - 32.0 °F 50% 29.89 in 10.0 mi NNW 16.1 mph 24.2 mph N/A   Clear
3:53 AM 48.9 °F - 32.0 °F 52% 29.89 in 10.0 mi North 9.2 mph - N/A   Clear
4:53 AM 48.0 °F - 30.9 °F 52% 29.89 in 10.0 mi NNW 8.1 mph - N/A   Clear
5:53 AM 46.0 °F 43.1 °F 30.0 °F 54% 29.88 in 10.0 mi North 5.8 mph - N/A   Clear
6:53 AM 46.0 °F 42.5 °F 28.9 °F 51% 29.89 in 10.0 mi NNW 6.9 mph - N/A   Scattered Clouds
7:53 AM 50.0 °F - 32.0 °F 50% 29.91 in 10.0 mi North 9.2 mph - N/A   Scattered Clouds
8:53 AM 54.0 °F - 30.0 °F 40% 29.91 in 10.0 mi North 6.9 mph - N/A   Scattered Clouds
9:53 AM 59.0 °F - 30.0 °F 33% 29.91 in 10.0 mi North 9.2 mph - N/A   Clear
10:53 AM 64.0 °F - 28.9 °F 27% 29.90 in 10.0 mi NNW 10.4 mph 19.6 mph N/A   Clear
11:53 AM 66.9 °F - 32.0 °F 27% 29.88 in 10.0 mi NW 17.3 mph 25.3 mph N/A   Clear
1:53 PM 71.1 °F - 39.9 °F 32% 29.86 in 10.0 mi WNW 18.4 mph 25.3 mph N/A   Scattered Clouds
2:53 PM 70.0 °F - 42.1 °F 36% 29.85 in 10.0 mi NW 26.5 mph 32.2 mph N/A   Scattered Clouds
3:53 PM 68.0 °F - 44.1 °F 42% 29.84 in 10.0 mi NW 20.7 mph 38.0 mph N/A   Partly Cloudy
4:53 PM 66.9 °F - 44.1 °F 44% 29.83 in 10.0 mi NNW 17.3 mph 27.6 mph N/A   Clear
5:53 PM 63.0 °F - 43.0 °F 48% 29.83 in 10.0 mi North 18.4 mph 25.3 mph N/A   Scattered Clouds
6:53 PM 59.0 °F - 43.0 °F 55% 29.84 in 10.0 mi NW 12.7 mph 23.0 mph N/A   Scattered Clouds
7:53 PM 55.9 °F - 43.0 °F 62% 29.85 in 10.0 mi WNW 10.4 mph - N/A   Mostly Cloudy
8:53 PM 54.0 °F - 44.1 °F 69% 29.86 in 10.0 mi West 8.1 mph - N/A   Overcast
9:53 PM 52.0 °F - 44.1 °F 74% 29.86 in 10.0 mi WSW 5.8 mph - N/A   Mostly Cloudy
10:53 PM 50.0 °F - 44.1 °F 80% 29.85 in 10.0 mi West 5.8 mph - N/A   Overcast
11:53 PM 48.9 °F - 43.0 °F 80% 29.84 in 10.0 mi WSW 8.1 mph - N/A   Mostly Cloudy